AC0ID-13 Weather Reports


Display with metric or nautical units.
time (UTC)temp
F
wind
direction
speed
MPH
gust
MPH
rain 1hr
in
rain 24hr
in
rain mn
in
humidity
%
barometer
mb
20260510043503 44 335 0.0 2.0 0.00 0.00 0.00 49 1014.6
20260510043004 44 298 0.0 2.0 0.00 0.00 0.00 49 1014.6
20260510042503 45 298 0.0 1.0 0.00 0.00 0.00 49 1014.6
20260510042003 45 296 0.0 1.0 0.00 0.00 0.00 49 1014.5
20260510041507 45 296 0.0 1.0 0.00 0.00 0.00 48 1014.5
20260510041004 45 296 0.0 1.0 0.00 0.00 0.00 48 1014.4
20260510040504 45 296 0.0 1.0 0.00 0.00 0.00 48 1014.4
20260510040015 45 300 0.0 1.0 0.00 0.00 0.00 48 1014.3
20260510035504 45 300 0.0 1.0 0.00 0.00 0.00 48 1014.2
20260510035003 45 297 0.0 1.0 0.00 0.00 0.00 48 1014.2
20260510034508 45 297 0.0 3.0 0.00 0.00 0.00 48 1014.1
20260510034006 45 297 0.0 3.0 0.00 0.00 0.00 48 1014.2
20260510033506 45 325 0.0 3.0 0.00 0.00 0.00 48 1014.1
20260510033008 45 323 0.0 3.0 0.00 0.00 0.00 48 1014.1
20260510032503 45 325 0.0 2.0 0.00 0.00 0.00 48 1014.0
20260510032004 45 332 0.0 0.0 0.00 0.00 0.00 48 1013.9
20260510031507 45 332 0.0 0.0 0.00 0.00 0.00 48 1013.9
20260510031004 46 332 0.0 0.0 0.00 0.00 0.00 47 1013.9
20260510030507 46 332 0.0 0.0 0.00 0.00 0.00 47 1013.8
20260510030012 46 332 0.0 0.0 0.00 0.00 0.00 46 1013.7
20260510025505 47 332 0.0 0.0 0.00 0.00 0.00 46 1013.6
20260510025004 47 332 0.0 0.0 0.00 0.00 0.00 45 1013.5
20260510024514 47 332 0.0 0.0 0.00 0.00 0.00 45 1013.4
20260510024006 48 332 0.0 0.0 0.00 0.00 0.00 44 1013.3
20260510023504 48 332 0.0 0.0 0.00 0.00 0.00 43 1013.2
20260510023017 49 332 0.0 0.0 0.00 0.00 0.00 43 1013.1
20260510022507 49 332 0.0 1.0 0.00 0.00 0.00 41 1013.0
20260510022004 49 332 0.0 1.0 0.00 0.00 0.00 41 1012.9
20260510021523 50 332 0.0 1.0 0.00 0.00 0.00 40 1012.9
20260510021005 50 332 0.0 1.0 0.00 0.00 0.00 40 1012.8
20260510020504 51 332 0.0 1.0 0.00 0.00 0.00 38 1012.7
20260510020006 51 332 0.0 1.0 0.00 0.00 0.00 38 1012.5
20260510015504 52 332 0.0 1.0 0.00 0.00 0.00 37 1012.5
20260510015005 52 332 0.0 1.0 0.00 0.00 0.00 37 1012.3
20260510014506 53 332 0.0 3.0 0.00 0.00 0.00 36 1012.3
20260510014004 53 332 0.0 3.0 0.00 0.00 0.00 35 1012.2
20260510013504 53 9 0.0 2.0 0.00 0.00 0.00 34 1012.1
20260510013017 54 360 0.0 4.0 0.00 0.00 0.00 34 1011.9
20260510012505 54 5 0.0 4.0 0.00 0.00 0.00 34 1011.8
20260510012005 54 14 0.0 5.0 0.00 0.00 0.00 33 1011.7
20260510011522 55 327 2.0 6.0 0.00 0.00 0.00 32 1011.5
20260510011004 55 349 2.0 6.0 0.00 0.00 0.00 31 1011.4
20260510010504 55 15 1.0 6.0 0.00 0.00 0.00 32 1011.3
20260510010015 55 352 1.0 6.0 0.00 0.00 0.00 31 1011.2
20260510005509 56 352 1.0 5.0 0.00 0.00 0.00 31 1011.1
20260510005004 56 333 1.0 8.0 0.00 0.00 0.00 31 1011.1
20260510004505 56 349 1.0 8.0 0.00 0.00 0.00 31 1011.0
20260510004009 56 303 1.0 10.0 0.00 0.00 0.00 31 1011.0
20260510003503 57 360 3.0 10.0 0.00 0.00 0.00 30 1011.0
20260510003010 57 342 2.0 7.0 0.00 0.00 0.00 31 1010.8
20260510002504 57 10 2.0 9.0 0.00 0.00 0.00 30 1010.8
20260510002005 57 352 1.0 9.0 0.00 0.00 0.00 30 1010.7
20260510001507 57 24 2.0 11.0 0.00 0.00 0.00 30 1010.7
20260510001006 57 334 3.0 11.0 0.00 0.00 0.00 30 1010.7
20260510000505 57 298 3.0 8.0 0.00 0.00 0.00 30 1010.5
20260510000022 58 317 3.0 11.0 0.00 0.00 0.00 30 1010.5
20260509235504 58 315 1.0 11.0 0.00 0.00 0.00 30 1010.4
20260509235009 58 301 3.0 12.0 0.00 0.00 0.00 30 1010.4
20260509234527 58 352 5.0 12.0 0.00 0.00 0.00 29 1010.3
20260509234005 58 255 3.0 12.0 0.00 0.00 0.00 29 1010.3
20260509233506 58 5 5.0 11.0 0.00 0.00 0.00 28 1010.2
20260509233009 58 330 2.0 10.0 0.00 0.00 0.00 29 1010.2
20260509232503 59 283 3.0 10.0 0.00 0.00 0.00 28 1010.1
20260509232003 59 24 3.0 10.0 0.00 0.00 0.00 28 1010.1
20260509231510 59 316 3.0 10.0 0.00 0.00 0.00 28 1010.1
20260509231006 59 342 3.0 11.0 0.00 0.00 0.00 28 1010.0
20260509230507 59 23 2.0 20.0 0.00 0.00 0.00 29 1009.9
20260509230014 60 360 3.0 20.0 0.00 0.00 0.00 28 1009.9
20260509225507 60 42 2.0 11.0 0.00 0.00 0.00 28 1009.8
20260509225007 60 348 3.0 13.0 0.00 0.00 0.00 27 1009.8
20260509224508 60 290 1.0 13.0 0.00 0.00 0.00 27 1009.8
20260509224007 61 144 3.0 13.0 0.00 0.00 0.00 26 1009.6
20260509223509 61 5 3.0 11.0 0.00 0.00 0.00 29 1009.7
20260509223029 61 352 3.0 14.0 0.00 0.00 0.00 28 1009.6
20260509222504 61 339 4.0 14.0 0.00 0.00 0.00 28 1009.5
20260509222006 62 246 2.0 12.0 0.00 0.00 0.00 29 1009.4
20260509221511 62 302 4.0 12.0 0.00 0.00 0.00 28 1009.4
20260509221003 62 334 2.0 10.0 0.00 0.00 0.00 28 1009.3
20260509220504 62 341 1.0 12.0 0.00 0.00 0.00 29 1009.3
20260509220015 62 101 4.0 12.0 0.00 0.00 0.00 29 1009.4
20260509215507 62 55 3.0 11.0 0.00 0.00 0.00 30 1009.3
20260509215003 62 344 2.0 12.0 0.00 0.00 0.00 28 1009.2
20260509214519 62 252 3.0 12.0 0.00 0.00 0.00 29 1009.2
20260509214011 63 333 3.0 14.0 0.00 0.00 0.00 28 1009.2
20260509213508 63 330 4.0 14.0 0.00 0.00 0.00 29 1009.2
20260509213019 63 191 3.0 15.0 0.00 0.00 0.00 28 1009.2
20260509212509 63 349 4.0 15.0 0.00 0.00 0.00 27 1009.1
20260509212011 63 286 3.0 13.0 0.00 0.00 0.00 29 1009.0
20260509211514 63 5 5.0 18.0 0.00 0.00 0.00 27 1009.0
20260509211012 63 325 4.0 19.0 0.00 0.00 0.00 28 1009.0
20260509210507 63 321 5.0 19.0 0.00 0.00 0.00 28 1008.9
20260509210017 64 239 6.0 15.0 0.00 0.00 0.00 27 1008.9
20260509205507 64 69 4.0 15.0 0.00 0.00 0.00 28 1008.7
20260509205008 64 299 4.0 11.0 0.00 0.00 0.00 28 1008.8
20260509204516 64 352 3.0 11.0 0.00 0.00 0.00 28 1008.8
20260509204007 64 195 3.0 14.0 0.00 0.00 0.00 28 1008.8
20260509203507 64 329 5.0 14.0 0.00 0.00 0.00 27 1008.8
20260509203022 64 23 3.0 13.0 0.00 0.00 0.00 29 1008.7
20260509202507 64 340 4.0 12.0 0.00 0.00 0.00 31 1008.7
20260509202009 63 315 3.0 12.0 0.00 0.00 0.00 30 1008.6
20260509201522 64 49 5.0 14.0 0.00 0.00 0.00 30 1008.5
20260509201012 64 24 5.0 14.0 0.00 0.00 0.00 31 1008.4
20260509200510 64 267 4.0 13.0 0.00 0.00 0.00 31 1008.3
20260509200020 64 269 3.0 14.0 0.00 0.00 0.00 31 1008.4
20260509195516 64 275 4.0 14.0 0.00 0.00 0.00 30 1008.3
20260509195010 64 331 4.0 13.0 0.00 0.00 0.00 30 1008.3
20260509194515 64 306 4.0 19.0 0.00 0.00 0.00 29 1008.2
20260509194008 64 201 4.0 19.0 0.00 0.00 0.00 30 1008.2
20260509193508 64 182 2.0 18.0 0.00 0.00 0.00 30 1008.2
20260509193019 64 14 7.0 18.0 0.00 0.00 0.00 30 1008.1
20260509192507 64 217 3.0 16.0 0.00 0.00 0.00 30 1008.1
20260509192007 64 336 6.0 16.0 0.00 0.00 0.00 29 1008.1
20260509191523 64 268 3.0 13.0 0.00 0.00 0.00 30 1007.9
20260509191007 64 319 2.0 13.0 0.00 0.00 0.00 30 1008.0
20260509190503 64 155 3.0 14.0 0.00 0.00 0.00 33 1008.0
20260509190007 64 93 3.0 16.0 0.00 0.00 0.00 32 1007.9
20260509185504 64 19 3.0 16.0 0.00 0.00 0.00 32 1007.9
20260509185004 64 331 3.0 14.0 0.00 0.00 0.00 33 1007.8
20260509184505 64 277 2.0 14.0 0.00 0.00 0.00 33 1007.7
20260509184007 65 268 5.0 13.0 0.00 0.00 0.00 33 1007.9
20260509183508 65 342 3.0 10.0 0.00 0.00 0.00 35 1007.6
20260509183004 64 308 2.0 14.0 0.00 0.00 0.00 35 1007.6
20260509182505 63 75 4.0 14.0 0.00 0.00 0.00 35 1007.6
20260509182006 63 275 3.0 14.0 0.00 0.00 0.00 35 1007.6
20260509181520 64 267 4.0 13.0 0.00 0.00 0.00 35 1007.6
20260509181004 64 234 3.0 11.0 0.00 0.00 0.00 34 1007.5
20260509180503 64 15 4.0 11.0 0.00 0.00 0.00 40 1007.5
20260509180005 63 331 3.0 10.0 0.00 0.00 0.00 37 1007.5
20260509175503 63 332 3.0 10.0 0.00 0.00 0.00 35 1007.6
20260509175003 63 293 2.0 9.0 0.00 0.00 0.00 36 1007.4
20260509174507 62 290 2.0 16.0 0.00 0.00 0.00 37 1007.2
20260509174005 62 248 5.0 17.0 0.00 0.00 0.00 37 1007.4
20260509173503 62 221 6.0 17.0 0.00 0.00 0.00 36 1007.3
20260509173012 62 325 3.0 13.0 0.00 0.00 0.00 38 1007.3
20260509172507 62 34 3.0 14.0 0.00 0.00 0.00 37 1007.3
20260509172007 62 360 3.0 14.0 0.00 0.00 0.00 39 1007.2
20260509171520 62 306 5.0 14.0 0.00 0.00 0.00 39 1007.2
20260509171006 62 293 3.0 13.0 0.00 0.00 0.00 40 1007.2
20260509170507 61 345 5.0 13.0 0.00 0.00 0.00 44 1007.2
20260509170018 61 248 3.0 12.0 0.00 0.00 0.00 47 1007.2
20260509165504 61 296 5.0 12.0 0.00 0.00 0.00 43 1007.2
20260509165006 60 50 3.0 12.0 0.00 0.00 0.00 42 1007.1
20260509164506 61 319 5.0 12.0 0.00 0.00 0.00 43 1007.3
20260509164005 61 71 2.0 10.0 0.00 0.00 0.00 45 1007.1
20260509163505 61 328 3.0 12.0 0.00 0.00 0.00 51 1007.2
20260509163011 60 351 3.0 12.0 0.00 0.00 0.00 49 1007.2
20260509162508 60 292 4.0 12.0 0.00 0.00 0.00 45 1007.1
20260509162003 60 281 4.0 12.0 0.00 0.00 0.00 47 1006.9
20260509161515 60 49 3.0 15.0 0.00 0.00 0.00 51 1006.9
20260509161010 60 264 3.0 15.0 0.00 0.00 0.00 46 1006.9
20260509160503 60 15 5.0 13.0 0.00 0.00 0.00 52 1006.7
20260509160016 60 19 5.0 12.0 0.00 0.00 0.00 51 1006.7
20260509155508 60 298 4.0 11.0 0.00 0.00 0.00 53 1006.7
20260509155010 59 321 3.0 11.0 0.00 0.00 0.00 53 1006.7
20260509154516 59 335 3.0 11.0 0.00 0.00 0.00 55 1006.7
20260509154010 58 26 2.0 10.0 0.00 0.00 0.00 54 1006.7
20260509153503 58 275 3.0 11.0 0.00 0.00 0.00 55 1006.5
20260509153008 57 324 3.0 11.0 0.00 0.00 0.00 58 1006.6
20260509152504 57 338 2.0 12.0 0.00 0.00 0.00 57 1006.5
20260509152006 57 333 1.0 12.0 0.00 0.00 0.00 56 1006.3
20260509151512 57 5 3.0 13.0 0.00 0.00 0.00 55 1006.2
20260509151005 57 334 3.0 13.0 0.00 0.00 0.00 57 1006.2
20260509150509 57 360 3.0 12.0 0.00 0.00 0.00 59 1006.0
20260509150029 57 11 2.0 12.0 0.00 0.00 0.00 59 1005.9
20260509145508 57 327 4.0 12.0 0.00 0.00 0.00 59 1005.8
20260509145008 57 332 5.0 13.0 0.00 0.00 0.00 62 1005.6
20260509144530 57 327 4.0 13.0 0.00 0.00 0.00 61 1005.5
20260509144009 57 336 4.0 12.0 0.00 0.00 0.00 63 1005.4
20260509143504 57 286 4.0 13.0 0.00 0.00 0.00 62 1005.4
20260509143016 57 360 5.0 13.0 0.00 0.00 0.00 62 1005.3
20260509142508 57 259 4.0 14.0 0.00 0.00 0.00 60 1005.2
20260509142008 57 297 2.0 14.0 0.00 0.00 0.00 60 1005.1
20260509141513 57 15 3.0 13.0 0.00 0.00 0.00 60 1005.1
20260509141009 57 69 3.0 11.0 0.00 0.00 0.00 61 1005.0
20260509140508 57 352 2.0 12.0 0.00 0.00 0.00 62 1004.9
20260509140009 56 340 4.0 14.0 0.00 0.00 0.00 63 1004.9
20260509135506 55 230 6.0 14.0 0.00 0.00 0.00 63 1004.8
20260509135013 55 5 3.0 12.0 0.00 0.00 0.00 64 1004.7
20260509134520 55 321 3.0 10.0 0.00 0.00 0.00 64 1004.6
20260509134012 54 287 3.0 11.0 0.00 0.00 0.00 65 1004.6
20260509133507 54 295 3.0 14.0 0.00 0.00 0.00 65 1004.6
20260509133022 53 306 5.0 14.0 0.00 0.00 0.00 65 1004.6
20260509132507 53 295 2.0 9.0 0.00 0.00 0.00 65 1004.4
20260509132010 52 152 1.0 9.0 0.00 0.00 0.00 64 1004.4
20260509131527 51 309 2.0 5.0 0.00 0.00 0.00 63 1004.4
20260509131009 51 360 2.0 5.0 0.00 0.00 0.00 61 1004.3
20260509130504 51 242 1.0 3.0 0.00 0.00 0.00 61 1004.3
20260509130016 50 342 0.0 3.0 0.00 0.00 0.00 60 1004.2
20260509125507 50 140 0.0 2.0 0.00 0.00 0.00 59 1004.3
20260509125011 50 350 0.0 2.0 0.00 0.00 0.00 59 1004.2
20260509124520 50 308 0.0 2.0 0.00 0.00 0.00 58 1004.0
20260509124006 50 195 0.0 2.0 0.00 0.00 0.00 57 1004.0
20260509123507 50 195 0.0 2.0 0.00 0.00 0.00 57 1003.9
20260509123014 49 196 0.0 1.0 0.00 0.00 0.00 56 1003.9
20260509122510 49 196 0.0 1.0 0.00 0.00 0.00 55 1003.9
20260509122009 49 196 0.0 2.0 0.00 0.00 0.00 55 1004.0
20260509121528 49 196 0.0 2.0 0.00 0.00 0.00 55 1004.0
20260509121007 49 213 0.0 4.0 0.00 0.00 0.00 55 1003.9
20260509120507 49 204 0.0 4.0 0.00 0.00 0.00 55 1003.9
20260509120026 49 226 0.0 1.0 0.00 0.00 0.00 55 1003.9
20260509115507 49 226 0.0 2.0 0.00 0.00 0.00 55 1003.6
20260509115010 49 213 0.0 3.0 0.00 0.00 0.00 55 1003.4
20260509114528 48 213 0.0 7.0 0.00 0.00 0.00 55 1003.3
20260509114008 48 294 1.0 7.0 0.00 0.00 0.00 55 1003.7
20260509113507 48 338 1.0 5.0 0.00 0.00 0.00 56 1003.7
20260509113019 48 315 0.0 3.0 0.00 0.00 0.00 55 1003.5
20260509112506 47 38 0.0 4.0 0.00 0.00 0.00 56 1003.5
20260509112011 47 345 0.0 4.0 0.00 0.00 0.00 56 1003.5
20260509111521 47 312 0.0 5.0 0.00 0.00 0.00 57 1003.4
20260509111010 47 257 1.0 5.0 0.00 0.00 0.00 57 1003.3
20260509110508 46 59 0.0 1.0 0.00 0.00 0.00 58 1003.3
20260509110020 46 9 0.0 3.0 0.00 0.00 0.00 58 1003.2
20260509105508 46 9 0.0 5.0 0.00 0.00 0.00 59 1003.1
20260509105010 45 333 1.0 5.0 0.00 0.00 0.00 60 1003.0
20260509104527 45 284 1.0 4.0 0.00 0.00 0.00 60 1003.1
20260509104006 45 52 1.0 8.0 0.00 0.00 0.00 61 1003.2
20260509103510 44 321 2.0 8.0 0.00 0.00 0.00 62 1003.1
20260509103027 44 201 2.0 8.0 0.00 0.00 0.00 63 1003.3
20260509102511 43 226 1.0 3.0 0.00 0.00 0.00 62 1002.5
20260509102010 43 233 1.0 3.0 0.00 0.00 0.00 62 1002.3
20260509101534 43 196 0.0 2.0 0.00 0.00 0.00 61 1002.3
20260509101003 43 260 0.0 2.0 0.00 0.00 0.00 59 1002.3
20260509100503 43 19 0.0 1.0 0.00 0.00 0.00 59 1002.2
20260509100009 43 19 0.0 1.0 0.00 0.00 0.00 58 1002.2
20260509095504 43 19 0.0 0.0 0.00 0.00 0.00 57 1002.3
20260509095004 43 19 0.0 0.0 0.00 0.00 0.00 57 1002.3
20260509094510 43 19 0.0 0.0 0.00 0.00 0.00 57 1002.2
20260509094003 44 19 0.0 0.0 0.00 0.00 0.00 57 1002.4
20260509093504 44 19 0.0 0.0 0.00 0.00 0.00 56 1002.4
20260509093004 44 19 0.0 0.0 0.00 0.00 0.00 56 1002.4
20260509092504 44 19 0.0 0.0 0.00 0.00 0.00 56 1002.5
20260509092003 44 19 0.0 0.0 0.00 0.00 0.00 56 1002.5
20260509091503 44 19 0.0 0.0 0.00 0.00 0.00 56 1002.5
20260509091003 44 19 0.0 0.0 0.00 0.00 0.00 56 1002.4
20260509090503 45 19 0.0 0.0 0.00 0.00 0.00 56 1002.5
20260509090004 45 19 0.0 0.0 0.00 0.00 0.00 57 1002.6
20260509085503 45 19 0.0 0.0 0.00 0.00 0.00 56 1002.6
20260509085003 45 19 0.0 1.0 0.00 0.00 0.00 56 1002.6
20260509084510 45 19 0.0 1.0 0.00 0.00 0.00 56 1002.5
20260509084003 45 19 0.0 1.0 0.00 0.00 0.00 55 1002.4
20260509083506 46 19 0.0 1.0 0.00 0.00 0.00 54 1002.4
20260509083005 46 19 0.0 0.0 0.00 0.00 0.00 53 1002.4
20260509082505 46 19 0.0 0.0 0.00 0.00 0.00 52 1002.2
20260509082003 47 19 0.0 0.0 0.00 0.00 0.00 51 1002.2
20260509081504 47 19 0.0 0.0 0.00 0.00 0.00 50 1002.2
20260509081004 47 19 0.0 0.0 0.00 0.00 0.00 50 1002.3
20260509080503 48 19 0.0 0.0 0.00 0.00 0.00 49 1002.4
20260509080001 48 19 0.0 0.0 0.00 0.00 0.00 49 1002.4
20260509075501 48 19 0.0 0.0 0.00 0.00 0.00 48 1002.4
20260509075001 49 19 0.0 0.0 0.00 0.00 0.00 48 1002.5
20260509074506 49 19 0.0 0.0 0.00 0.00 0.00 48 1002.5
20260509074003 50 19 0.0 0.0 0.00 0.00 0.00 46 1002.4
20260509073502 50 19 0.0 0.0 0.00 0.00 0.00 46 1002.6
20260509073003 50 19 0.0 0.0 0.00 0.00 0.00 44 1002.6
20260509072502 51 19 0.0 0.0 0.00 0.00 0.00 44 1002.8
20260509072001 51 19 0.0 0.0 0.00 0.00 0.00 44 1002.7
20260509071502 52 19 0.0 0.0 0.00 0.00 0.00 43 1002.7
20260509071002 52 19 0.0 0.0 0.00 0.00 0.00 43 1002.8
20260509070504 53 19 0.0 0.0 0.00 0.00 0.00 42 1002.8
20260509070003 53 19 0.0 0.0 0.00 0.00 0.00 41 1002.9
20260509065502 54 19 0.0 0.0 0.00 0.00 0.00 40 1002.9
20260509065001 54 19 0.0 0.0 0.00 0.00 0.00 39 1003.0
20260509064506 54 19 0.0 0.0 0.00 0.00 0.00 39 1002.9
20260509064005 55 19 0.0 0.0 0.00 0.00 0.00 39 1003.1
20260509063503 55 19 0.0 0.0 0.00 0.00 0.00 38 1003.1
20260509063005 55 19 0.0 0.0 0.00 0.00 0.00 38 1003.1
20260509062503 56 19 0.0 1.0 0.00 0.00 0.00 38 1003.1
20260509062005 56 19 0.0 1.0 0.00 0.00 0.00 38 1003.1
20260509061502 56 19 0.0 2.0 0.00 0.00 0.00 37 1003.1
20260509061003 56 19 0.0 2.0 0.00 0.00 0.00 37 1003.2
20260509060502 56 255 0.0 5.0 0.00 0.00 0.00 37 1003.3
20260509060006 56 327 1.0 5.0 0.00 0.00 0.00 37 1003.3
20260509055501 56 61 1.0 5.0 0.00 0.00 0.00 37 1003.3
20260509055003 57 340 1.0 7.0 0.00 0.00 0.00 37 1003.3
20260509054503 57 346 1.0 7.0 0.00 0.00 0.00 37 1003.2
20260509054005 57 269 1.0 7.0 0.00 0.00 0.00 37 1003.2
20260509053506 57 352 1.0 7.0 0.00 0.00 0.00 37 1003.2
20260509053006 57 346 2.0 7.0 0.00 0.00 0.00 37 1003.2
20260509052504 57 324 1.0 7.0 0.00 0.00 0.00 37 1003.2
20260509052004 57 352 2.0 7.0 0.00 0.00 0.00 37 1003.2
20260509051506 57 63 2.0 7.0 0.00 0.00 0.00 38 1003.3
20260509051003 57 321 2.0 9.0 0.00 0.00 0.00 37 1003.2
20260509050504 57 297 2.0 9.0 0.00 0.00 0.00 38 1003.2
20260509050005 57 360 2.0 7.0 0.00 0.00 0.00 38 1003.1
20260509045505 57 25 0.0 2.0 0.00 0.00 0.00 37 1003.2
20260509045005 57 298 0.0 2.0 0.00 0.00 0.00 37 1003.2
20260509044510 57 282 0.0 3.0 0.00 0.00 0.00 37 1003.2
20260509044002 57 300 0.0 3.0 0.00 0.00 0.00 37 1003.2